FENGYUN 1C DEB

Satellite information

Favourite Embed

Satellite Type and Status

DEBRISIN ORBIT

Key statistics

Satellite FENGYUN 1C DEB at a glance.

Uptime

9664

Days in orbit

Revolutions

≈ 14.1

Per day

Orbit

SSO

Sun Synchronous Orbit

Inclination

99.1

Latest

Satellite identification and parameters

Extended collection of information and parameters for FENGYUN 1C DEB.

Object identification

Identified? True

Debris? True

Object name: FENGYUN 1C DEB

International designator: 1999-025BY

Object number (NORAD): 29782

Object ID (CCSDS): 29782

Country: PEOPLES REPUBLIC OF CHINA (PRC)

Current information (Y/N): Y

RCS size: SMALL

Orbital parameters

Period: 102.032 minutes

Inclination: 99.1038 deg

SMA: 7232.97 km

Apoapsis: 893.007 km

Periapsis: 816.663 km

RAAN: 349.5938 deg

Eccentricy: 0.0052775

Argument of periapsis: 344.6746 deg

Mean anomaly: 135.9248 deg

Mean motion: 14.11327268 rev/day

Mean motion (dot): 0.00002308 rev/day2

B* drag term: 0.0012853452 1/REarth

Two-line elements (TLE)

Creation date: Oct. 24, 2025, 2:48 a.m.

Reference frame: TEME

Reference center: EARTH

Epoch: Oct. 23, 2025, 4:41 p.m. UTC

TLE line 0: 0 FENGYUN 1C DEB

TLE line 1: 1 29782U 99025BY 25296.69543282 .00002308 00000-0 12853-2 0 9990

TLE line 2: 2 29782 99.1038 349.5938 0052775 344.6746 135.9248 14.11327268959652

Live tracking on map

Real-time ground track for satellite FENGYUN 1C DEB.

In-orbit conjunctions

A list of the most updated potential collisions computed for object FENGYUN 1C DEB.

Target Orbit TCA Probability of collision Miss distance Type
CZ-4 DEB SSO 2025-10-05 22:20:42 0.0001465108 348.0 (m) DEBRIS
COSMOS 1275 DEB LEO 2025-05-18 15:02:08 0.0001807599 155.0 (m) DEBRIS
THORAD AGENA D DEB SSO 2024-12-13 10:42:52 0.0001358942 224.0 (m) DEBRIS

Associated space launch

Chinese polar orbiting meteorological satellite

FENGYUN 1C DEB was lifted into orbit during the mission ‘Long March 4B | Feng Yun 1C’, on board a Long March 4B space rocket.

The launch took place on May 10, 1999, 1:33 a.m. from Launch Complex 7.

For more information about the launch, click the button.

Launch to space Long March 4B | Feng Yun 1C
Long March 4B | Feng Yun 1C

Agency: N/A

Status: Launch Successful

Launch date: May 10, 1999, 1:33 a.m. UTC

Rocket: Long March 4B

Launch pad: Launch Complex 7

Location: Taiyuan Satellite Launch Center, People's Republic of China

...

Latest news about this satellite

There are no fresh news available about this satellite. Check back as we update our databases every day.


Newsletter sign-up

Weekly statistics, charts and insights to help you stay on top of the space industry.